STARLINK-5664, 55360

Orbit data source: Space-Track

STARLINK-5664, 55360 is a payload satellite owned by SpaceX/Seattle (US) in LEO that was launched on Thu, 26 Jan 2023 UTC via an FALCON 9 launch vehicle from the Air Force Eastern Test Range (AFETR). Payload-class satellites include a variety of spacecraft equipped with specific instruments for various scientific and technological missions. These include communications satellites like Starlink; space stations such as the ISS; scientific satellites like the Hubble; Earth observation satellites from companies like Planet Labs, Umbra, and HawkEye 360; GPS; miniature CubeSats for education and research; and military/defense satellites.

Loading next visibility...
Identifier
55360, 2023-013AF
Orbit
LEO
Country
Flag of USUS
Related business
Manufacturer
SpaceX/Seattle
Mission
Operational Commercial Communications
Bus & Motor
STARLINK, Unknown motor
Mass
305 kg wet, ~290 kg dry
Launch date (UTC)
2023-01-26 (3 years ago)
Launch vehicle
FALCON 9
Launch site
Air Force Eastern Test Range (AFETR)
Object type
Payload
Rocket body
Debris
Shape & HBR
Box + 1 Pan, 10.1 m
Radar Cross Section
13.562 m², Large (>1 m²)

Expand to show TLE details & history
Last TLE update: 3 days ago

TLE from 3 days ago
0 STARLINK-5664
1 55360U 23013AF  26170.16332110  .00001309  00000-0  57076-4 0  9993
2 55360  43.0040 108.3389 0001306 274.3380  85.7322 15.27584058186985
Epoch: 2026-06-19T03:55Z
TLE epoch observation values (Epoch: 2026-06-19T03:55:10.943Z)
Latitude
-0.00003°
Longitude
142.14703°
Altitude
482.746 km
Speed
7.626 km/s
True Right ascension
07h 13m 21s
True Declination
0° 00' 00"
Sunlit
Object was in daylight at epoch
Visualization orbit readout
Latitude
Unknown
Longitude
Unknown
Altitude
Unknown
Speed
Unknown
Apparent Right ascension
Unknown
Apparent Declination
Unknown
Sunlit
N/A
Visualization observer readout
Local Sidereal Time
21:37:47
Azimuth
Unknown
Elevation
Unknown
Doppler factor
Unknown
Orbital elements
Apogee altitude
485.878 km
Perigee altitude
484.085 km
Semi-major axis
6,863.118 km
Eccentricity
0.00013
Inclination
43.004°
RAAN
108.3389°
Arg. of periapsis
274.338°
True anomaly
85.74712°
Mean anomaly
85.7322°
Eccentric anomaly
85.73966°
Mean motion
3.81734 °/min
Orbital period
94.31 mins
BSTAR
0.000057076
Loading maneuver chart data...
Computing Atmospheric mass density...
Loading historical data...
Loading historical data...
Loading historical data...
Loading historical data...
Loading historical data...
Loading historical data...
Loading historical data...

Documentation

Showing up to 5 results
|